OK1VCF-8 Weather Reports


time (UTC)temp
C
wind
direction
speed
KPH
gust
KPH
rain 1hr
cm
rain 24hr
cm
rain mn
cm
humidity
%
barometer
mb
20260901125208 22 0 0.0 0.0 0.00 0.00 0.00 48 1021.8
20260901124439 23 0 0.0 0.0 0.00 0.00 0.00 46 1021.9
20260901123712 24 0 0.0 0.0 0.00 0.00 0.00 44 1021.8
20260901122941 24 0 0.0 0.0 0.00 0.00 0.00 44 1022.0
20260901122212 23 0 0.0 0.0 0.00 0.00 0.00 44 1022.0
20260901121434 24 0 0.0 0.0 0.00 0.00 0.00 46 1022.0
20260901120706 24 0 0.0 0.0 0.00 0.00 0.00 45 1022.0
20260901115931 24 0 0.0 0.0 0.00 0.00 0.00 46 1022.1
20260901115155 25 0 0.0 0.0 0.00 0.00 0.00 44 1022.1
20260901114417 25 0 0.0 0.0 0.00 0.00 0.00 44 1022.0
20260901113642 24 0 0.0 0.0 0.00 0.00 0.00 46 1022.2
20260901112913 23 0 0.0 0.0 0.00 0.00 0.00 46 1022.0
20260901112146 24 0 0.0 0.0 0.00 0.00 0.00 48 1022.2
20260901111143 23 0 0.0 0.0 0.00 0.00 0.00 47 1022.2
20260901110426 23 0 0.0 0.0 0.00 0.00 0.00 50 1022.2
20260901105707 23 0 0.0 0.0 0.00 0.00 0.00 50 1022.1
20260901104950 23 0 0.0 0.0 0.00 0.00 0.00 49 1022.0
20260901104232 23 0 0.0 0.0 0.00 0.00 0.00 50 1022.2
20260901103514 22 0 0.0 0.0 0.00 0.00 0.00 51 1022.2
20260901102756 23 0 0.0 0.0 0.00 0.00 0.00 50 1022.2
20260901102037 22 0 0.0 0.0 0.00 0.00 0.00 52 1022.1
20260901101318 22 0 0.0 0.0 0.00 0.00 0.00 50 1022.2
20260901100600 22 0 0.0 0.0 0.00 0.00 0.00 53 1022.1
20260901095840 22 0 0.0 0.0 0.00 0.00 0.00 50 1022.0
20260901095123 23 0 0.0 0.0 0.00 0.00 0.00 52 1022.1
20260901094406 23 0 0.0 0.0 0.00 0.00 0.00 51 1022.0
20260901093649 22 0 0.0 0.0 0.00 0.00 0.00 55 1021.8
20260901092931 22 0 0.0 0.0 0.00 0.00 0.00 55 1022.0
20260901091929 22 0 0.0 0.0 0.00 0.00 0.00 54 1022.0
20260901091212 22 0 0.0 0.0 0.00 0.00 0.00 56 1022.2
20260901090453 22 0 0.0 0.0 0.00 0.00 0.00 56 1022.0
20260901085734 21 0 0.0 0.0 0.00 0.00 0.00 56 1022.0
20260901085017 21 0 0.0 0.0 0.00 0.00 0.00 58 1022.0
20260901084259 21 0 0.0 0.0 0.00 0.00 0.00 59 1021.8
20260901083540 21 0 0.0 0.0 0.00 0.00 0.00 56 1021.7
20260901082822 21 0 0.0 0.0 0.00 0.00 0.00 58 1021.8
20260901082104 21 0 0.0 0.0 0.00 0.00 0.00 60 1021.8
20260901081344 20 0 0.0 0.0 0.00 0.00 0.00 59 1021.6
20260901080627 20 0 0.0 0.0 0.00 0.00 0.00 58 1021.6
20260901075908 20 0 0.0 0.0 0.00 0.00 0.00 59 1021.4
20260901075148 20 0 0.0 0.0 0.00 0.00 0.00 62 1021.4
20260901074431 20 0 0.0 0.0 0.00 0.00 0.00 62 1021.4
20260901073714 19 0 0.0 0.0 0.00 0.00 0.00 62 1021.4
20260901072712 18 0 0.0 0.0 0.00 0.00 0.00 65 1021.2
20260901071954 18 0 0.0 0.0 0.00 0.00 0.00 67 1021.2
20260901071236 18 0 0.0 0.0 0.00 0.00 0.00 70 1021.4
20260901070513 18 0 0.0 0.0 0.00 0.00 0.00 71 1021.3
20260901065748 17 0 0.0 0.0 0.00 0.00 0.00 72 1021.4
20260901065027 17 0 0.0 0.0 0.00 0.00 0.00 74 1021.2
20260901064305 17 0 0.0 0.0 0.00 0.00 0.00 75 1021.3
20260901063542 17 0 0.0 0.0 0.00 0.00 0.00 76 1021.2
20260901062816 17 0 0.0 0.0 0.00 0.00 0.00 76 1021.4
20260901062049 16 0 0.0 0.0 0.00 0.00 0.00 78 1021.3
20260901061324 16 0 0.0 0.0 0.00 0.00 0.00 78 1021.2
20260901060602 16 0 0.0 0.0 0.00 0.00 0.00 80 1021.2
20260901055840 16 0 0.0 0.0 0.00 0.00 0.00 80 1021.0
20260901055117 15 0 0.0 0.0 0.00 0.00 0.00 81 1021.2
20260901054358 15 0 0.0 0.0 0.00 0.00 0.00 82 1021.0
20260901053355 15 0 0.0 0.0 0.00 0.00 0.00 82 1020.8
20260901052635 15 0 0.0 0.0 0.00 0.00 0.00 84 1021.0
20260901051916 15 0 0.0 0.0 0.00 0.00 0.00 84 1020.8
20260901051159 15 0 0.0 0.0 0.00 0.00 0.00 84 1020.8
20260901050440 14 0 0.0 0.0 0.00 0.00 0.00 84 1021.0
20260901045720 14 0 0.0 0.0 0.00 0.00 0.00 85 1020.8
20260901045001 14 0 0.0 0.0 0.00 0.00 0.00 84 1020.6
20260901044244 14 0 0.0 0.0 0.00 0.00 0.00 84 1020.6
20260901043527 14 0 0.0 0.0 0.00 0.00 0.00 84 1020.4
20260901042809 14 0 0.0 0.0 0.00 0.00 0.00 85 1020.4
20260901042050 13 0 0.0 0.0 0.00 0.00 0.00 86 1020.4
20260901041331 14 0 0.0 0.0 0.00 0.00 0.00 84 1020.2
20260901040615 14 0 0.0 0.0 0.00 0.00 0.00 83 1020.3
20260901035855 15 0 0.0 0.0 0.00 0.00 0.00 82 1020.2
20260901035136 15 0 0.0 0.0 0.00 0.00 0.00 82 1020.3
20260901034134 15 0 0.0 0.0 0.00 0.00 0.00 82 1020.1
20260901033417 15 0 0.0 0.0 0.00 0.00 0.00 81 1020.2
20260901032659 15 0 0.0 0.0 0.00 0.00 0.00 80 1020.2
20260901031942 15 0 0.0 0.0 0.00 0.00 0.00 81 1020.0
20260901031225 15 0 0.0 0.0 0.00 0.00 0.00 80 1020.1
20260901030508 15 0 0.0 0.0 0.00 0.00 0.00 80 1020.0
20260901025750 15 0 0.0 0.0 0.00 0.00 0.00 80 1020.1
20260901025033 15 0 0.0 0.0 0.00 0.00 0.00 80 1020.1
20260901024315 15 0 0.0 0.0 0.00 0.00 0.00 80 1020.1
20260901023558 15 0 0.0 0.0 0.00 0.00 0.00 79 1020.0
20260901022841 15 0 0.0 0.0 0.00 0.00 0.00 79 1020.0
20260901022125 15 0 0.0 0.0 0.00 0.00 0.00 78 1019.8
20260901015946 15 0 0.0 0.0 0.00 0.00 0.00 77 1019.6
20260901014945 15 0 0.0 0.0 0.00 0.00 0.00 76 1019.6
20260901014229 16 0 0.0 0.0 0.00 0.00 0.00 75 1019.6
20260901013514 16 0 0.0 0.0 0.00 0.00 0.00 74 1019.8
20260901012757 16 0 0.0 0.0 0.00 0.00 0.00 74 1019.6
20260901012035 16 0 0.0 0.0 0.00 0.00 0.00 74 1019.6
20260901011312 16 0 0.0 0.0 0.00 0.00 0.00 74 1019.5
20260901010544 16 0 0.0 0.0 0.00 0.00 0.00 72 1019.5
20260901005815 17 0 0.0 0.0 0.00 0.00 0.00 72 1019.5
20260901005049 17 0 0.0 0.0 0.00 0.00 0.00 71 1019.5
20260901002905 17 0 0.0 0.0 0.00 0.00 0.00 70 1019.4
20260901002139 16 0 0.0 0.0 0.00 0.00 0.00 70 1019.4
20260901001412 16 0 0.0 0.0 0.00 0.00 0.00 70 1019.4
20260901000645 16 0 0.0 0.0 0.00 0.00 0.00 70 1019.4
20260831235630 16 0 0.0 0.0 0.00 0.00 0.00 70 1019.4
20260831234854 16 0 0.0 0.0 0.00 0.00 0.00 70 1019.4
20260831234119 16 0 0.0 0.0 0.00 0.00 0.00 70 1019.2
20260831231915 16 0 0.0 0.0 0.00 0.00 0.00 72 1019.3
20260831231156 16 0 0.0 0.0 0.00 0.00 0.00 74 1019.3
20260831230438 16 0 0.0 0.0 0.00 0.00 0.00 75 1019.2
20260831225720 16 0 0.0 0.0 0.00 0.00 0.00 74 1019.1
20260831225003 16 0 0.0 0.0 0.00 0.00 0.00 74 1018.9
20260831224244 16 0 0.0 0.0 0.00 0.00 0.00 74 1019.0
20260831223526 15 0 0.0 0.0 0.00 0.00 0.00 78 1018.8
20260831222809 15 0 0.0 0.0 0.00 0.00 0.00 78 1018.8
20260831222049 15 0 0.0 0.0 0.00 0.00 0.00 77 1018.7
20260831221334 16 0 0.0 0.0 0.00 0.00 0.00 77 1018.8
20260831220332 16 0 0.0 0.0 0.00 0.00 0.00 76 1018.7
20260831215611 16 0 0.0 0.0 0.00 0.00 0.00 76 1018.7
20260831214854 16 0 0.0 0.0 0.00 0.00 0.00 75 1018.5
20260831214134 16 0 0.0 0.0 0.00 0.00 0.00 74 1018.5
20260831213416 16 0 0.0 0.0 0.00 0.00 0.00 74 1018.4
20260831212656 17 0 0.0 0.0 0.00 0.00 0.00 73 1018.2
20260831211937 17 0 0.0 0.0 0.00 0.00 0.00 73 1018.2
20260831211220 16 0 0.0 0.0 0.00 0.00 0.00 75 1018.1
20260831210502 16 0 0.0 0.0 0.00 0.00 0.00 74 1018.0
20260831205744 17 0 0.0 0.0 0.00 0.00 0.00 74 1018.0
20260831205026 16 0 0.0 0.0 0.00 0.00 0.00 74 1017.9
20260831204309 16 0 0.0 0.0 0.00 0.00 0.00 74 1017.8
20260831203550 16 0 0.0 0.0 0.00 0.00 0.00 74 1017.8
20260831202831 17 0 0.0 0.0 0.00 0.00 0.00 73 1017.8
20260831200405 17 0 0.0 0.0 0.00 0.00 0.00 72 1017.6
20260831195645 17 0 0.0 0.0 0.00 0.00 0.00 71 1017.4
20260831194927 17 0 0.0 0.0 0.00 0.00 0.00 70 1017.3
20260831194209 18 0 0.0 0.0 0.00 0.00 0.00 70 1017.4
20260831193450 17 0 0.0 0.0 0.00 0.00 0.00 70 1017.4
20260831192731 18 0 0.0 0.0 0.00 0.00 0.00 69 1017.4
20260831192012 18 0 0.0 0.0 0.00 0.00 0.00 70 1017.2
20260831191253 17 0 0.0 0.0 0.00 0.00 0.00 70 1017.1
20260831190534 17 0 0.0 0.0 0.00 0.00 0.00 68 1017.2
20260831185814 18 0 0.0 0.0 0.00 0.00 0.00 67 1017.0
20260831185056 18 0 0.0 0.0 0.00 0.00 0.00 66 1017.1
20260831184338 18 0 0.0 0.0 0.00 0.00 0.00 65 1017.0
20260831183620 18 0 0.0 0.0 0.00 0.00 0.00 64 1017.0
20260831182902 19 0 0.0 0.0 0.00 0.00 0.00 62 1017.0
20260831181857 20 0 0.0 0.0 0.00 0.00 0.00 60 1016.8
20260831181140 20 0 0.0 0.0 0.00 0.00 0.00 59 1016.7
20260831180422 20 0 0.0 0.0 0.00 0.00 0.00 57 1016.7
20260831175702 20 0 0.0 0.0 0.00 0.00 0.00 56 1016.5
20260831174942 21 0 0.0 0.0 0.00 0.00 0.00 54 1016.4
20260831174223 21 0 0.0 0.0 0.00 0.00 0.00 56 1016.4
20260831173503 21 0 0.0 0.0 0.00 0.00 0.00 54 1016.4
20260831172743 21 0 0.0 0.0 0.00 0.00 0.00 54 1016.2
20260831172023 21 0 0.0 0.0 0.00 0.00 0.00 54 1016.2
20260831171304 22 0 0.0 0.0 0.00 0.00 0.00 53 1016.2
20260831170544 22 0 0.0 0.0 0.00 0.00 0.00 52 1016.2
20260831165824 22 0 0.0 0.0 0.00 0.00 0.00 50 1016.0
20260831165105 23 0 0.0 0.0 0.00 0.00 0.00 48 1016.1
20260831164347 23 0 0.0 0.0 0.00 0.00 0.00 46 1016.0
20260831163628 28 0 0.0 0.0 0.00 0.00 0.00 38 1016.0
20260831162624 28 0 0.0 0.0 0.00 0.00 0.00 38 1016.2
20260831161905 27 0 0.0 0.0 0.00 0.00 0.00 41 1016.2
20260831161146 24 0 0.0 0.0 0.00 0.00 0.00 46 1016.2
20260831160428 26 0 0.0 0.0 0.00 0.00 0.00 42 1016.2
20260831155708 28 0 0.0 0.0 0.00 0.00 0.00 38 1016.1
20260831154949 27 0 0.0 0.0 0.00 0.00 0.00 40 1016.0
20260831154231 28 0 0.0 0.0 0.00 0.00 0.00 40 1016.1
20260831153511 29 0 0.0 0.0 0.00 0.00 0.00 36 1016.0
20260831152752 30 0 0.0 0.0 0.00 0.00 0.00 38 1016.0
20260831152032 28 0 0.0 0.0 0.00 0.00 0.00 39 1016.2
20260831151313 27 0 0.0 0.0 0.00 0.00 0.00 40 1016.3
20260831150553 25 0 0.0 0.0 0.00 0.00 0.00 46 1016.4
20260831145831 25 0 0.0 0.0 0.00 0.00 0.00 48 1016.3
20260831145113 25 0 0.0 0.0 0.00 0.00 0.00 46 1016.4
20260831144352 26 0 0.0 0.0 0.00 0.00 0.00 46 1016.4
20260831143348 26 0 0.0 0.0 0.00 0.00 0.00 45 1016.4
20260831142628 25 0 0.0 0.0 0.00 0.00 0.00 46 1016.4
20260831141909 26 0 0.0 0.0 0.00 0.00 0.00 47 1016.5
20260831141152 25 0 0.0 0.0 0.00 0.00 0.00 48 1016.5
20260831140432 24 0 0.0 0.0 0.00 0.00 0.00 50 1016.6
20260831135712 25 0 0.0 0.0 0.00 0.00 0.00 48 1016.4
20260831134953 25 0 0.0 0.0 0.00 0.00 0.00 48 1016.4
20260831134234 25 0 0.0 0.0 0.00 0.00 0.00 48 1016.4
20260831133515 24 0 0.0 0.0 0.00 0.00 0.00 48 1016.4
20260831132755 24 0 0.0 0.0 0.00 0.00 0.00 50 1016.6
20260831132033 25 0 0.0 0.0 0.00 0.00 0.00 50 1016.6
20260831131315 25 0 0.0 0.0 0.00 0.00 0.00 51 1016.6
20260831130555 24 0 0.0 0.0 0.00 0.00 0.00 52 1016.6